Time,TemperatureF,DewpointF,PressureIn,WindDirection,WindDirectionDegrees,WindSpeedMPH,WindSpeedGustMPH,Humidity,HourlyPrecipIn,Conditions,Clouds,dailyrainin,SolarRadiationWatts/m^2,SoftwareType,DateUTC
2013-03-18 00:02:00,30.0,12.0,29.97,SW,214,8.0,13.0,45,-99.99,,,-99.99,-0.100000,,2013-03-18 06:02:00,
2013-03-18 00:11:00,30.0,12.0,29.98,SSW,212,9.0,13.0,46,-99.99,,,-99.99,-0.200000,,2013-03-18 06:11:00,
2013-03-18 00:21:00,30.0,13.0,29.98,SSW,202,8.0,13.0,48,-99.99,,,-99.99,-0.400000,,2013-03-18 06:21:00,
2013-03-18 00:32:00,29.0,13.0,29.98,SSW,199,10.0,13.0,51,-99.99,,,-99.99,-0.300000,,2013-03-18 06:32:00,
2013-03-18 00:41:00,28.0,12.0,29.98,SSW,207,11.0,14.0,50,-99.99,,,-99.99,0.000000,,2013-03-18 06:41:00,
2013-03-18 00:52:00,28.0,13.0,29.98,SSW,204,10.0,14.0,51,-99.99,,,-99.99,-0.100000,,2013-03-18 06:52:00,
2013-03-18 01:01:00,28.0,13.0,29.98,SSW,211,10.0,14.0,51,-99.99,,,-99.99,-0.100000,,2013-03-18 07:01:00,
2013-03-18 01:11:00,28.0,13.0,29.98,SSW,213,11.0,15.0,51,-99.99,,,-99.99,0.300000,,2013-03-18 07:11:00,
2013-03-18 01:22:00,28.0,13.0,29.98,SW,216,11.0,13.0,52,-99.99,,,-99.99,0.100000,,2013-03-18 07:22:00,
2013-03-18 01:31:00,28.0,13.0,29.99,SW,223,9.0,13.0,53,-99.99,,,-99.99,-0.100000,,2013-03-18 07:31:00,
2013-03-18 01:42:00,28.0,13.0,29.99,SW,220,9.0,12.0,54,-99.99,,,-99.99,0.000000,,2013-03-18 07:42:00,
2013-03-18 01:52:00,28.0,14.0,29.99,SW,219,8.0,11.0,55,-99.99,,,-99.99,-0.100000,,2013-03-18 07:52:00,
2013-03-18 02:02:00,27.0,14.0,29.99,SSW,211,8.0,10.0,56,-99.99,,,-99.99,-0.100000,,2013-03-18 08:02:00,
2013-03-18 02:11:00,27.0,15.0,29.99,SSW,208,8.0,11.0,58,-99.99,,,-99.99,-0.200000,,2013-03-18 08:11:00,
2013-03-18 02:21:00,27.0,15.0,29.99,SW,215,8.0,11.0,58,-99.99,,,-99.99,0.100000,,2013-03-18 08:21:00,
2013-03-18 02:32:00,27.0,15.0,29.99,SW,219,8.0,11.0,57,-99.99,,,-99.99,-0.100000,,2013-03-18 08:32:00,
2013-03-18 02:42:00,28.0,15.0,29.99,SW,217,8.0,11.0,57,-99.99,,,-99.99,0.000000,,2013-03-18 08:42:00,
2013-03-18 02:51:00,28.0,14.0,30.00,SW,226,9.0,13.0,55,-99.99,,,-99.99,0.000000,,2013-03-18 08:51:00,
2013-03-18 03:01:00,28.0,15.0,30.00,SW,223,8.0,11.0,56,-99.99,,,-99.99,0.100000,,2013-03-18 09:01:00,
2013-03-18 03:11:00,28.0,15.0,30.00,SW,220,9.0,12.0,55,-99.99,,,-99.99,0.000000,,2013-03-18 09:11:00,
2013-03-18 03:22:00,28.0,15.0,30.00,SW,220,9.0,11.0,56,-99.99,,,-99.99,-0.100000,,2013-03-18 09:22:00,
2013-03-18 03:32:00,28.0,15.0,30.00,SW,223,8.0,11.0,56,-99.99,,,-99.99,0.100000,,2013-03-18 09:32:00,
2013-03-18 03:42:00,28.0,15.0,30.01,SW,216,7.0,11.0,56,-99.99,,,-99.99,0.000000,,2013-03-18 09:42:00,
2013-03-18 03:52:00,28.0,14.0,30.01,SW,218,7.0,9.0,55,-99.99,,,-99.99,0.000000,,2013-03-18 09:52:00,
2013-03-18 04:03:00,29.0,14.0,30.01,SW,219,7.0,12.0,53,-99.99,,,-99.99,-0.200000,,2013-03-18 10:03:00,
2013-03-18 04:12:00,29.0,14.0,30.00,SW,222,10.0,13.0,52,-99.99,,,-99.99,0.000000,,2013-03-18 10:12:00,
2013-03-18 04:23:00,29.0,13.0,30.00,SW,220,7.0,12.0,52,-99.99,,,-99.99,0.100000,,2013-03-18 10:23:00,
2013-03-18 04:32:00,28.0,14.0,30.01,SSW,209,5.0,7.0,54,-99.99,,,-99.99,-0.100000,,2013-03-18 10:32:00,
2013-03-18 04:41:00,27.0,14.0,30.01,SSW,207,6.0,7.0,57,-99.99,,,-99.99,0.100000,,2013-03-18 10:41:00,
2013-03-18 04:52:00,27.0,15.0,30.01,SSW,205,7.0,9.0,59,-99.99,,,-99.99,0.000000,,2013-03-18 10:52:00,
2013-03-18 05:02:00,27.0,15.0,30.00,SSW,211,7.0,10.0,60,-99.99,,,-99.99,0.000000,,2013-03-18 11:02:00,
2013-03-18 05:11:00,26.0,15.0,30.00,SSW,204,8.0,9.0,61,-99.99,,,-99.99,0.000000,,2013-03-18 11:11:00,
2013-03-18 05:21:00,26.0,15.0,30.00,SSW,203,8.0,11.0,61,-99.99,,,-99.99,0.300000,,2013-03-18 11:21:00,
2013-03-18 05:31:00,26.0,15.0,30.00,SSW,205,9.0,11.0,62,-99.99,,,-99.99,-0.100000,,2013-03-18 11:31:00,
2013-03-18 05:41:00,26.0,14.0,30.00,SSW,208,10.0,13.0,61,-99.99,,,-99.99,-0.100000,,2013-03-18 11:41:00,
2013-03-18 05:52:00,25.0,14.0,30.00,SSW,206,10.0,13.0,62,-99.99,,,-99.99,-0.200000,,2013-03-18 11:52:00,
2013-03-18 06:01:00,25.0,14.0,30.00,SSW,207,10.0,13.0,62,-99.99,,,-99.99,0.000000,,2013-03-18 12:01:00,
2013-03-18 06:12:00,25.0,14.0,30.00,SSW,211,11.0,14.0,62,-99.99,,,-99.99,-0.300000,,2013-03-18 12:12:00,
2013-03-18 06:21:00,25.0,14.0,30.00,SW,214,10.0,14.0,62,-99.99,,,-99.99,-0.100000,,2013-03-18 12:21:00,
2013-03-18 06:32:00,25.0,14.0,30.01,SSW,210,9.0,14.0,63,-99.99,,,-99.99,-0.200000,,2013-03-18 12:32:00,
2013-03-18 06:41:00,25.0,14.0,30.01,SSW,212,10.0,14.0,63,-99.99,,,-99.99,0.000000,,2013-03-18 12:41:00,
2013-03-18 06:51:00,25.0,14.0,30.01,SSW,209,9.0,13.0,64,-99.99,,,-99.99,0.000000,,2013-03-18 12:51:00,
2013-03-18 07:02:00,24.0,14.0,30.01,SSW,207,8.0,12.0,64,-99.99,,,-99.99,-0.100000,,2013-03-18 13:02:00,
2013-03-18 07:11:00,24.0,14.0,30.02,SSW,204,10.0,14.0,64,-99.99,,,-99.99,0.100000,,2013-03-18 13:11:00,
2013-03-18 07:21:00,24.0,14.0,30.02,SSW,208,9.0,12.0,63,-99.99,,,-99.99,0.100000,,2013-03-18 13:21:00,
2013-03-18 07:32:00,24.0,14.0,30.03,SSW,202,9.0,14.0,63,-99.99,,,-99.99,0.100000,,2013-03-18 13:32:00,
2013-03-18 07:42:00,24.0,14.0,30.03,SSW,209,9.0,11.0,62,-99.99,,,-99.99,0.900000,,2013-03-18 13:42:00,
2013-03-18 07:52:00,24.0,14.0,30.04,SSW,209,10.0,15.0,63,-99.99,,,-99.99,3.100000,,2013-03-18 13:52:00,
2013-03-18 08:02:00,24.0,14.0,30.04,SSW,205,11.0,16.0,65,-99.99,,,-99.99,8.200000,,2013-03-18 14:02:00,
2013-03-18 08:11:00,24.0,14.0,30.04,SSW,203,10.0,14.0,65,-99.99,,,-99.99,24.100000,,2013-03-18 14:11:00,
2013-03-18 08:21:00,25.0,14.0,30.04,SSW,208,9.0,14.0,64,-99.99,,,-99.99,48.299999,,2013-03-18 14:21:00,
2013-03-18 08:32:00,26.0,14.0,30.05,SW,215,10.0,14.0,62,-99.99,,,-99.99,86.000000,,2013-03-18 14:32:00,
2013-03-18 08:42:00,26.0,15.0,30.04,SSW,209,9.0,16.0,61,-99.99,,,-99.99,126.099998,,2013-03-18 14:42:00,
2013-03-18 08:51:00,27.0,15.0,30.05,SSW,208,13.0,19.0,59,-99.99,,,-99.99,158.699997,,2013-03-18 14:51:00,
2013-03-18 09:02:00,27.0,15.0,30.05,SSW,203,15.0,22.0,59,-99.99,,,-99.99,188.500000,,2013-03-18 15:02:00,
2013-03-18 09:11:00,27.0,14.0,30.05,SSW,203,17.0,25.0,57,-99.99,,,-99.99,221.300003,,2013-03-18 15:11:00,
2013-03-18 09:21:00,28.0,14.0,30.05,SSW,202,15.0,22.0,55,-99.99,,,-99.99,255.800003,,2013-03-18 15:21:00,
2013-03-18 09:32:00,28.0,14.0,30.05,SSW,203,14.0,21.0,55,-99.99,,,-99.99,289.899994,,2013-03-18 15:32:00,
2013-03-18 09:42:00,29.0,14.0,30.05,SSW,201,15.0,23.0,54,-99.99,,,-99.99,322.100006,,2013-03-18 15:42:00,
2013-03-18 09:52:00,29.0,15.0,30.05,SSW,203,13.0,21.0,54,-99.99,,,-99.99,355.600006,,2013-03-18 15:52:00,
2013-03-18 10:02:00,30.0,14.0,30.06,SSW,211,12.0,19.0,51,-99.99,,,-99.99,388.200012,,2013-03-18 16:02:00,
2013-03-18 10:12:00,30.0,15.0,30.05,SW,223,11.0,17.0,51,-99.99,,,-99.99,421.700012,,2013-03-18 16:12:00,
2013-03-18 10:22:00,30.0,15.0,30.06,SW,215,13.0,23.0,51,-99.99,,,-99.99,453.500000,,2013-03-18 16:22:00,
2013-03-18 10:32:00,31.0,15.0,30.06,SW,221,11.0,16.0,50,-99.99,,,-99.99,484.600006,,2013-03-18 16:32:00,
2013-03-18 10:42:00,31.0,15.0,30.06,SW,218,12.0,18.0,50,-99.99,,,-99.99,515.500000,,2013-03-18 16:42:00,
2013-03-18 10:52:00,31.0,15.0,30.06,SW,223,14.0,19.0,50,-99.99,,,-99.99,546.200012,,2013-03-18 16:52:00,
2013-03-18 11:02:00,32.0,16.0,30.06,SW,216,13.0,22.0,50,-99.99,,,-99.99,573.500000,,2013-03-18 17:02:00,
2013-03-18 11:11:00,33.0,16.0,30.06,SW,218,14.0,22.0,50,-99.99,,,-99.99,599.299988,,2013-03-18 17:11:00,
2013-03-18 11:21:00,33.0,16.0,30.06,SW,231,16.0,24.0,48,-99.99,,,-99.99,594.000000,,2013-03-18 17:21:00,
2013-03-18 11:32:00,35.0,16.0,30.06,WSW,237,13.0,23.0,45,-99.99,,,-99.99,460.500000,,2013-03-18 17:32:00,
2013-03-18 11:42:00,35.0,15.0,30.06,SW,234,17.0,24.0,44,-99.99,,,-99.99,597.599976,,2013-03-18 17:42:00,
2013-03-18 11:52:00,36.0,16.0,30.05,SW,228,13.0,22.0,43,-99.99,,,-99.99,780.400024,,2013-03-18 17:52:00,
2013-03-18 12:01:00,37.0,16.0,30.05,SW,231,15.0,22.0,42,-99.99,,,-99.99,735.099976,,2013-03-18 18:01:00,
2013-03-18 12:11:00,36.0,16.0,30.05,WSW,248,14.0,24.0,42,-99.99,,,-99.99,716.200012,,2013-03-18 18:11:00,
2013-03-18 12:21:00,37.0,15.0,30.04,SW,231,15.0,26.0,41,-99.99,,,-99.99,732.299988,,2013-03-18 18:21:00,
2013-03-18 12:32:00,37.0,16.0,30.04,WSW,250,14.0,22.0,41,-99.99,,,-99.99,580.799988,,2013-03-18 18:32:00,
2013-03-18 12:42:00,38.0,15.0,30.04,WSW,249,13.0,22.0,39,-99.99,,,-99.99,795.000000,,2013-03-18 18:42:00,
2013-03-18 12:52:00,37.0,15.0,30.04,SW,231,18.0,26.0,39,-99.99,,,-99.99,600.099976,,2013-03-18 18:52:00,
2013-03-18 13:02:00,38.0,16.0,30.03,WSW,239,16.0,25.0,39,-99.99,,,-99.99,622.900024,,2013-03-18 19:02:00,
2013-03-18 13:11:00,38.0,15.0,30.03,SW,223,16.0,24.0,39,-99.99,,,-99.99,326.299988,,2013-03-18 19:11:00,
2013-03-18 13:21:00,37.0,15.0,30.03,SW,236,17.0,28.0,39,-99.99,,,-99.99,295.100006,,2013-03-18 19:21:00,
2013-03-18 13:32:00,38.0,15.0,30.02,WSW,238,15.0,24.0,39,-99.99,,,-99.99,294.700012,,2013-03-18 19:32:00,
2013-03-18 13:41:00,38.0,15.0,30.02,SW,234,15.0,27.0,38,-99.99,,,-99.99,385.899994,,2013-03-18 19:41:00,
2013-03-18 13:52:00,39.0,15.0,30.02,SW,235,20.0,30.0,37,-99.99,,,-99.99,384.899994,,2013-03-18 19:52:00,
2013-03-18 14:02:00,40.0,15.0,30.01,WSW,242,18.0,29.0,37,-99.99,,,-99.99,774.299988,,2013-03-18 20:02:00,
2013-03-18 14:11:00,39.0,15.0,30.01,SW,236,16.0,28.0,37,-99.99,,,-99.99,273.600006,,2013-03-18 20:11:00,
2013-03-18 14:21:00,39.0,15.0,30.01,WSW,244,15.0,28.0,36,-99.99,,,-99.99,381.600006,,2013-03-18 20:21:00,
2013-03-18 14:32:00,40.0,15.0,30.01,WSW,242,14.0,26.0,35,-99.99,,,-99.99,432.299988,,2013-03-18 20:32:00,
2013-03-18 14:42:00,40.0,15.0,30.00,WSW,239,11.0,25.0,36,-99.99,,,-99.99,404.399994,,2013-03-18 20:42:00,
2013-03-18 14:51:00,41.0,15.0,30.00,WSW,238,20.0,30.0,35,-99.99,,,-99.99,842.000000,,2013-03-18 20:51:00,
2013-03-18 15:02:00,42.0,15.0,29.99,SW,235,16.0,26.0,34,-99.99,,,-99.99,477.399994,,2013-03-18 21:02:00,
2013-03-18 15:11:00,43.0,16.0,29.99,SW,223,18.0,28.0,34,-99.99,,,-99.99,896.000000,,2013-03-18 21:11:00,
2013-03-18 15:21:00,41.0,15.0,29.98,WSW,245,16.0,24.0,34,-99.99,,,-99.99,596.000000,,2013-03-18 21:21:00,
2013-03-18 15:32:00,42.0,15.0,29.98,SW,236,19.0,27.0,33,-99.99,,,-99.99,676.400024,,2013-03-18 21:32:00,
2013-03-18 15:42:00,42.0,15.0,29.98,SW,230,17.0,29.0,33,-99.99,,,-99.99,417.500000,,2013-03-18 21:42:00,
2013-03-18 15:52:00,42.0,15.0,29.97,WSW,238,19.0,26.0,33,-99.99,,,-99.99,617.500000,,2013-03-18 21:52:00,
2013-03-18 16:03:00,42.0,15.0,29.97,WSW,242,17.0,31.0,32,-99.99,,,-99.99,764.000000,,2013-03-18 22:03:00,
2013-03-18 16:12:00,43.0,15.0,29.97,SW,225,17.0,26.0,32,-99.99,,,-99.99,633.599976,,2013-03-18 22:12:00,
2013-03-18 16:22:00,43.0,15.0,29.97,WSW,245,18.0,27.0,32,-99.99,,,-99.99,624.000000,,2013-03-18 22:22:00,
2013-03-18 16:32:00,43.0,16.0,29.96,SW,226,19.0,31.0,32,-99.99,,,-99.99,701.599976,,2013-03-18 22:32:00,
2013-03-18 16:41:00,43.0,15.0,29.96,WSW,239,19.0,29.0,32,-99.99,,,-99.99,648.700012,,2013-03-18 22:41:00,
2013-03-18 16:52:00,42.0,15.0,29.96,WSW,239,20.0,30.0,32,-99.99,,,-99.99,444.799988,,2013-03-18 22:52:00,
2013-03-18 17:02:00,43.0,16.0,29.96,SW,220,19.0,29.0,33,-99.99,,,-99.99,575.000000,,2013-03-18 23:02:00,
2013-03-18 17:22:00,42.0,15.0,29.96,SW,234,19.0,31.0,32,-99.99,,,-99.99,436.200012,,2013-03-18 23:22:00,
2013-03-18 17:32:00,43.0,13.0,29.96,SW,233,22.0,32.0,29,-99.99,,,-99.99,456.399994,,2013-03-18 23:32:00,
2013-03-18 17:41:00,43.0,14.0,29.96,WSW,240,16.0,26.0,30,-99.99,,,-99.99,336.399994,,2013-03-18 23:41:00,
2013-03-18 17:52:00,42.0,14.0,29.96,WSW,246,20.0,32.0,31,-99.99,,,-99.99,317.399994,,2013-03-18 23:52:00,
2013-03-18 18:02:00,42.0,14.0,29.95,SW,235,17.0,28.0,32,-99.99,,,-99.99,283.000000,,2013-03-19 00:02:00,
2013-03-18 18:11:00,42.0,13.0,29.94,WSW,243,19.0,32.0,30,-99.99,,,-99.99,200.199997,,2013-03-19 00:11:00,
2013-03-18 18:21:00,42.0,12.0,29.93,WSW,251,15.0,27.0,29,-99.99,,,-99.99,203.300003,,2013-03-19 00:21:00,
2013-03-18 18:32:00,42.0,13.0,29.93,SW,236,21.0,33.0,30,-99.99,,,-99.99,159.500000,,2013-03-19 00:32:00,
2013-03-18 18:42:00,42.0,12.0,29.93,WSW,241,14.0,26.0,29,-99.99,,,-99.99,163.199997,,2013-03-19 00:42:00,
2013-03-18 18:52:00,42.0,11.0,29.93,WSW,246,15.0,25.0,28,-99.99,,,-99.99,160.800003,,2013-03-19 00:52:00,
2013-03-18 19:02:00,42.0,10.0,29.93,WSW,248,18.0,31.0,27,-99.99,,,-99.99,168.600006,,2013-03-19 01:02:00,
2013-03-18 19:11:00,41.0,11.0,29.92,WSW,242,22.0,35.0,29,-99.99,,,-99.99,133.199997,,2013-03-19 01:11:00,
2013-03-18 19:21:00,41.0,12.0,29.92,WSW,246,17.0,30.0,30,-99.99,,,-99.99,90.800003,,2013-03-19 01:21:00,
2013-03-18 19:31:00,40.0,12.0,29.93,WSW,239,20.0,33.0,31,-99.99,,,-99.99,45.000000,,2013-03-19 01:31:00,
2013-03-18 19:42:00,40.0,13.0,29.94,SW,234,15.0,26.0,33,-99.99,,,-99.99,17.600000,,2013-03-19 01:42:00,
2013-03-18 19:52:00,39.0,13.0,29.94,SW,233,15.0,24.0,33,-99.99,,,-99.99,9.800000,,2013-03-19 01:52:00,
2013-03-18 20:01:00,39.0,13.0,29.94,SW,232,16.0,28.0,34,-99.99,,,-99.99,6.100000,,2013-03-19 02:01:00,
2013-03-18 20:11:00,38.0,13.0,29.94,WSW,237,17.0,26.0,35,-99.99,,,-99.99,0.800000,,2013-03-19 02:11:00,
2013-03-18 20:21:00,37.0,14.0,29.95,WSW,237,13.0,22.0,37,-99.99,,,-99.99,0.100000,,2013-03-19 02:21:00,
2013-03-18 20:32:00,38.0,13.0,29.96,SW,235,15.0,23.0,35,-99.99,,,-99.99,-0.100000,,2013-03-19 02:32:00,
2013-03-18 20:41:00,37.0,13.0,29.97,WSW,241,13.0,24.0,36,-99.99,,,-99.99,0.000000,,2013-03-19 02:41:00,
2013-03-18 20:51:00,37.0,13.0,29.98,WSW,241,14.0,22.0,37,-99.99,,,-99.99,0.000000,,2013-03-19 02:51:00,
2013-03-18 21:01:00,37.0,13.0,29.98,SW,235,14.0,22.0,38,-99.99,,,-99.99,0.000000,,2013-03-19 03:01:00,
2013-03-18 21:11:00,37.0,13.0,29.99,SW,236,13.0,22.0,38,-99.99,,,-99.99,0.100000,,2013-03-19 03:11:00,
2013-03-18 21:21:00,36.0,13.0,30.00,WSW,238,12.0,18.0,38,-99.99,,,-99.99,0.100000,,2013-03-19 03:21:00,
2013-03-18 21:32:00,36.0,13.0,30.00,SW,231,10.0,15.0,39,-99.99,,,-99.99,0.000000,,2013-03-19 03:32:00,
2013-03-18 21:42:00,35.0,13.0,30.00,SW,234,13.0,19.0,39,-99.99,,,-99.99,-0.100000,,2013-03-19 03:42:00,
2013-03-18 21:53:00,36.0,12.0,30.00,WSW,244,13.0,20.0,36,-99.99,,,-99.99,-0.100000,,2013-03-19 03:53:00,
2013-03-18 22:02:00,36.0,12.0,30.00,WSW,253,11.0,20.0,36,-99.99,,,-99.99,0.000000,,2013-03-19 04:02:00,
2013-03-18 22:12:00,35.0,12.0,30.00,WSW,254,14.0,22.0,38,-99.99,,,-99.99,-0.200000,,2013-03-19 04:12:00,
2013-03-18 22:22:00,35.0,12.0,30.01,WSW,249,14.0,21.0,38,-99.99,,,-99.99,0.000000,,2013-03-19 04:22:00,
2013-03-18 22:32:00,35.0,12.0,30.02,WSW,249,12.0,24.0,38,-99.99,,,-99.99,-0.100000,,2013-03-19 04:32:00,
2013-03-18 22:42:00,34.0,12.0,30.03,WSW,238,5.0,9.0,40,-99.99,,,-99.99,-0.100000,,2013-03-19 04:42:00,
2013-03-18 22:52:00,34.0,13.0,30.04,South,189,3.0,6.0,41,-99.99,,,-99.99,0.000000,,2013-03-19 04:52:00,
2013-03-18 23:02:00,33.0,13.0,30.05,ESE,119,7.0,10.0,44,-99.99,,,-99.99,-0.400000,,2013-03-19 05:02:00,
2013-03-18 23:11:00,32.0,13.0,30.06,SE,127,6.0,11.0,44,-99.99,,,-99.99,0.000000,,2013-03-19 05:11:00,
2013-03-18 23:22:00,32.0,12.0,30.06,South,178,5.0,8.0,43,-99.99,,,-99.99,0.100000,,2013-03-19 05:22:00,
2013-03-18 23:32:00,34.0,12.0,30.06,WSW,241,7.0,13.0,39,-99.99,,,-99.99,-0.100000,,2013-03-19 05:32:00,
2013-03-18 23:42:00,34.0,11.0,30.06,West,265,10.0,16.0,38,-99.99,,,-99.99,0.000000,,2013-03-19 05:42:00,
2013-03-18 23:51:00,34.0,11.0,30.06,West,260,7.0,14.0,38,-99.99,,,-99.99,-0.100000,,2013-03-19 05:51:00,